Year,Month,Day,Hour,Minute,Value (Times are PST for temperature in C)
2015,08,14,00,00,17.80
2015,08,14,00,01,17.80
2015,08,14,00,02,17.70
2015,08,14,00,03,17.70
2015,08,14,00,04,17.60
2015,08,14,00,05,17.60
2015,08,14,00,06,17.60
2015,08,14,00,07,17.50
2015,08,14,00,08,17.50
2015,08,14,00,09,17.50
2015,08,14,00,10,17.40
2015,08,14,00,11,17.40
2015,08,14,00,12,17.40
2015,08,14,00,13,17.30
2015,08,14,00,14,17.30
2015,08,14,00,15,17.30
2015,08,14,00,16,17.30
2015,08,14,00,17,17.30
2015,08,14,00,18,17.20
2015,08,14,00,19,17.20
2015,08,14,00,20,17.20
2015,08,14,00,21,17.10
2015,08,14,00,22,17.10
2015,08,14,00,23,17.00
2015,08,14,00,24,17.00
2015,08,14,00,25,16.90
2015,08,14,00,26,16.90
2015,08,14,00,27,16.80
2015,08,14,00,28,16.70
2015,08,14,00,29,16.70
2015,08,14,00,30,16.70
2015,08,14,00,31,16.70
2015,08,14,00,32,16.70
2015,08,14,00,33,16.60
2015,08,14,00,34,16.60
2015,08,14,00,35,16.60
2015,08,14,00,36,16.50
2015,08,14,00,37,16.40
2015,08,14,00,38,16.40
2015,08,14,00,39,16.40
2015,08,14,00,40,16.40
2015,08,14,00,41,16.40
2015,08,14,00,42,16.40
2015,08,14,00,43,16.40
2015,08,14,00,44,16.40
2015,08,14,00,45,16.40
2015,08,14,00,46,16.40
2015,08,14,00,47,16.40
2015,08,14,00,48,16.30
2015,08,14,00,49,16.30
2015,08,14,00,50,16.30
2015,08,14,00,51,16.30
2015,08,14,00,52,16.30
2015,08,14,00,53,16.20
2015,08,14,00,54,16.20
2015,08,14,00,55,16.20
2015,08,14,00,56,16.20
2015,08,14,00,57,16.10
2015,08,14,00,58,16.10
2015,08,14,00,59,16.10
2015,08,14,01,00,16.10
2015,08,14,01,01,16.10
2015,08,14,01,02,16.10
2015,08,14,01,03,16.10
2015,08,14,01,04,16.10
2015,08,14,01,05,16.10
2015,08,14,01,06,16.10
2015,08,14,01,07,16.10
2015,08,14,01,08,16.10
2015,08,14,01,09,16.00
2015,08,14,01,10,15.90
2015,08,14,01,11,15.90
2015,08,14,01,12,15.90
2015,08,14,01,13,15.90
2015,08,14,01,14,15.90
2015,08,14,01,15,15.90
2015,08,14,01,16,15.80
2015,08,14,01,17,15.80
2015,08,14,01,18,15.80
2015,08,14,01,19,15.80
2015,08,14,01,20,15.80
2015,08,14,01,21,15.80
2015,08,14,01,22,15.80
2015,08,14,01,23,15.80
2015,08,14,01,24,15.80
2015,08,14,01,25,15.80
2015,08,14,01,26,15.80
2015,08,14,01,27,15.80
2015,08,14,01,28,15.80
2015,08,14,01,29,15.80
2015,08,14,01,30,15.80
2015,08,14,01,31,15.80
2015,08,14,01,32,15.80
2015,08,14,01,33,15.80
2015,08,14,01,34,15.80
2015,08,14,01,35,15.70
2015,08,14,01,36,15.70
2015,08,14,01,37,15.70
2015,08,14,01,38,15.70
2015,08,14,01,39,15.70
2015,08,14,01,40,15.70
2015,08,14,01,41,15.70
2015,08,14,01,42,15.70
2015,08,14,01,43,15.70
2015,08,14,01,44,15.70
2015,08,14,01,45,15.70
2015,08,14,01,46,15.70
2015,08,14,01,47,15.70
2015,08,14,01,48,15.70
2015,08,14,01,49,15.70
2015,08,14,01,50,15.70
2015,08,14,01,51,15.70
2015,08,14,01,52,15.70
2015,08,14,01,53,15.80
2015,08,14,01,54,15.80
2015,08,14,01,55,15.80
2015,08,14,01,56,15.80
2015,08,14,01,57,15.80
2015,08,14,01,58,15.80
2015,08,14,01,59,15.80
2015,08,14,02,00,15.80
2015,08,14,02,01,15.80
2015,08,14,02,02,15.80
2015,08,14,02,03,15.80
2015,08,14,02,04,15.80
2015,08,14,02,05,15.80
2015,08,14,02,06,15.80
2015,08,14,02,07,15.80
2015,08,14,02,08,15.80
2015,08,14,02,09,15.80
2015,08,14,02,10,15.80
2015,08,14,02,11,15.80
2015,08,14,02,12,15.80
2015,08,14,02,13,15.80
2015,08,14,02,14,15.80
2015,08,14,02,15,15.80
2015,08,14,02,16,15.80
2015,08,14,02,17,15.80
2015,08,14,02,18,15.80
2015,08,14,02,19,15.80
2015,08,14,02,20,15.80
2015,08,14,02,21,15.80
2015,08,14,02,22,15.80
2015,08,14,02,23,15.80
2015,08,14,02,24,15.80
2015,08,14,02,25,15.90
2015,08,14,02,26,15.90
2015,08,14,02,27,15.90
2015,08,14,02,28,15.90
2015,08,14,02,29,15.90
2015,08,14,02,30,15.90
2015,08,14,02,31,15.90
2015,08,14,02,32,15.80
2015,08,14,02,33,15.80
2015,08,14,02,34,15.80
2015,08,14,02,35,15.80
2015,08,14,02,36,15.70
2015,08,14,02,37,15.70
2015,08,14,02,38,15.60
2015,08,14,02,39,15.60
2015,08,14,02,40,15.60
2015,08,14,02,41,15.50
2015,08,14,02,42,15.50
2015,08,14,02,43,15.50
2015,08,14,02,44,15.50
2015,08,14,02,45,15.50
2015,08,14,02,46,15.50
2015,08,14,02,47,15.50
2015,08,14,02,48,15.50
2015,08,14,02,49,15.50
2015,08,14,02,50,15.50
2015,08,14,02,51,15.50
2015,08,14,02,52,15.50
2015,08,14,02,53,15.50
2015,08,14,02,54,15.50
2015,08,14,02,55,15.50
2015,08,14,02,56,15.50
2015,08,14,02,57,15.40
2015,08,14,02,58,15.40
2015,08,14,02,59,15.50
2015,08,14,03,00,15.50
2015,08,14,03,01,15.50
2015,08,14,03,02,15.50
2015,08,14,03,03,15.50
2015,08,14,03,04,15.50
2015,08,14,03,05,15.50
2015,08,14,03,06,15.50
2015,08,14,03,07,15.60
2015,08,14,03,08,15.60
2015,08,14,03,09,15.50
2015,08,14,03,10,15.50
2015,08,14,03,11,15.50
2015,08,14,03,12,15.50
2015,08,14,03,13,15.50
2015,08,14,03,14,15.50
2015,08,14,03,15,15.50
2015,08,14,03,16,15.50
2015,08,14,03,17,15.50
2015,08,14,03,18,15.50
2015,08,14,03,19,15.50
2015,08,14,03,20,15.40
2015,08,14,03,21,15.40
2015,08,14,03,22,15.30
2015,08,14,03,23,15.30
2015,08,14,03,24,15.30
2015,08,14,03,25,15.30
2015,08,14,03,26,15.30
2015,08,14,03,27,15.30
2015,08,14,03,28,15.30
2015,08,14,03,29,15.30
2015,08,14,03,30,15.30
2015,08,14,03,31,15.30
2015,08,14,03,32,15.30
2015,08,14,03,33,15.30
2015,08,14,03,34,15.30
2015,08,14,03,35,15.30
2015,08,14,03,36,15.30
2015,08,14,03,37,15.30
2015,08,14,03,38,15.30
2015,08,14,03,39,15.30
2015,08,14,03,40,15.30
2015,08,14,03,41,15.30
2015,08,14,03,42,15.30
2015,08,14,03,43,15.30
2015,08,14,03,44,15.40
2015,08,14,03,45,15.40
2015,08,14,03,46,15.40
2015,08,14,03,47,15.40
2015,08,14,03,48,15.40
2015,08,14,03,49,15.40
2015,08,14,03,50,15.40
2015,08,14,03,51,15.50
2015,08,14,03,52,15.50
2015,08,14,03,53,15.50
2015,08,14,03,54,15.50
2015,08,14,03,55,15.60
2015,08,14,03,56,15.60
2015,08,14,03,57,15.60
2015,08,14,03,58,15.60
2015,08,14,03,59,15.60
2015,08,14,04,00,15.50
2015,08,14,04,01,15.50
2015,08,14,04,02,15.50
2015,08,14,04,03,15.50
2015,08,14,04,04,15.40
2015,08,14,04,05,15.40
2015,08,14,04,06,15.40
2015,08,14,04,07,15.30
2015,08,14,04,08,15.30
2015,08,14,04,09,15.30
2015,08,14,04,10,15.30
2015,08,14,04,11,15.30
2015,08,14,04,12,15.30
2015,08,14,04,13,15.30
2015,08,14,04,14,15.30
2015,08,14,04,15,15.30
2015,08,14,04,16,15.30
2015,08,14,04,17,15.30
2015,08,14,04,18,15.30
2015,08,14,04,19,15.30
2015,08,14,04,20,15.30
2015,08,14,04,21,15.30
2015,08,14,04,22,15.30
2015,08,14,04,23,15.30
2015,08,14,04,24,15.30
2015,08,14,04,25,15.30
2015,08,14,04,26,15.30
2015,08,14,04,27,15.30
2015,08,14,04,28,15.40
2015,08,14,04,29,15.40
2015,08,14,04,30,15.40
2015,08,14,04,31,15.40
2015,08,14,04,32,15.40
2015,08,14,04,33,15.40
2015,08,14,04,34,15.40
2015,08,14,04,35,15.50
2015,08,14,04,36,15.50
2015,08,14,04,37,15.50
2015,08,14,04,38,15.50
2015,08,14,04,39,15.50
2015,08,14,04,40,15.50
2015,08,14,04,41,15.50
2015,08,14,04,42,15.50
2015,08,14,04,43,15.50
2015,08,14,04,44,15.60
2015,08,14,04,45,15.60
2015,08,14,04,46,15.60
2015,08,14,04,47,15.60
2015,08,14,04,48,15.60
2015,08,14,04,49,15.70
2015,08,14,04,50,15.70
2015,08,14,04,51,15.70
2015,08,14,04,52,15.70
2015,08,14,04,53,15.70
2015,08,14,04,54,15.80
2015,08,14,04,55,15.80
2015,08,14,04,56,15.80
2015,08,14,04,57,15.80
2015,08,14,04,58,15.80
2015,08,14,04,59,15.80
2015,08,14,05,00,15.80
2015,08,14,05,01,15.80
2015,08,14,05,02,15.80
2015,08,14,05,03,15.80
2015,08,14,05,04,15.80
2015,08,14,05,05,15.80
2015,08,14,05,06,15.80
2015,08,14,05,07,15.80
2015,08,14,05,08,15.80
2015,08,14,05,09,15.80
2015,08,14,05,10,15.80
2015,08,14,05,11,15.90
2015,08,14,05,12,15.90
2015,08,14,05,13,16.00
2015,08,14,05,14,16.10
2015,08,14,05,15,16.10
2015,08,14,05,16,16.10
2015,08,14,05,17,16.10
2015,08,14,05,18,16.10
2015,08,14,05,19,16.10
2015,08,14,05,20,16.10
2015,08,14,05,21,16.10
2015,08,14,05,22,16.10
2015,08,14,05,23,16.10
2015,08,14,05,24,16.10
2015,08,14,05,25,16.00
2015,08,14,05,26,15.90
2015,08,14,05,27,15.90
2015,08,14,05,28,15.90
2015,08,14,05,29,15.90
2015,08,14,05,30,15.90
2015,08,14,05,31,16.00
2015,08,14,05,32,16.10
2015,08,14,05,33,16.10
2015,08,14,05,34,16.10
2015,08,14,05,35,16.10
2015,08,14,05,36,16.10
2015,08,14,05,37,16.10
2015,08,14,05,38,16.10
2015,08,14,05,39,16.10
2015,08,14,05,40,16.20
2015,08,14,05,41,16.20
2015,08,14,05,42,16.20
2015,08,14,05,43,16.20
2015,08,14,05,44,16.30
2015,08,14,05,45,16.30
2015,08,14,05,46,16.30
2015,08,14,05,47,16.30
2015,08,14,05,48,16.30
2015,08,14,05,49,16.40
2015,08,14,05,50,16.40
2015,08,14,05,51,16.40
2015,08,14,05,52,16.40
2015,08,14,05,53,16.40
2015,08,14,05,54,16.40
2015,08,14,05,55,16.40
2015,08,14,05,56,16.40
2015,08,14,05,57,16.40
2015,08,14,05,58,16.40
2015,08,14,05,59,16.40
2015,08,14,06,00,16.40
2015,08,14,06,01,16.40
2015,08,14,06,02,16.40
2015,08,14,06,03,16.40
2015,08,14,06,04,16.40
2015,08,14,06,05,16.40
2015,08,14,06,06,16.40
2015,08,14,06,07,16.40
2015,08,14,06,08,16.40
2015,08,14,06,09,16.30
2015,08,14,06,10,16.30
2015,08,14,06,11,16.30
2015,08,14,06,12,16.30
2015,08,14,06,13,16.20
2015,08,14,06,14,16.20
2015,08,14,06,15,16.20
2015,08,14,06,16,16.10
2015,08,14,06,17,16.10
2015,08,14,06,18,16.10
2015,08,14,06,19,16.00
2015,08,14,06,20,15.90
2015,08,14,06,21,15.80
2015,08,14,06,22,15.70
2015,08,14,06,23,15.60
2015,08,14,06,24,15.50
2015,08,14,06,25,15.40
2015,08,14,06,26,15.30
2015,08,14,06,27,15.20
2015,08,14,06,28,15.20
2015,08,14,06,29,15.10
2015,08,14,06,30,15.10
2015,08,14,06,31,15.00
2015,08,14,06,32,14.90
2015,08,14,06,33,14.80
2015,08,14,06,34,14.70
2015,08,14,06,35,14.70
2015,08,14,06,36,14.60
2015,08,14,06,37,14.50
2015,08,14,06,38,14.50
2015,08,14,06,39,14.40
2015,08,14,06,40,14.30
2015,08,14,06,41,14.30
2015,08,14,06,42,14.20
2015,08,14,06,43,14.20
2015,08,14,06,44,14.20
2015,08,14,06,45,14.20
2015,08,14,06,46,14.10
2015,08,14,06,47,14.10
2015,08,14,06,48,14.10
2015,08,14,06,49,14.10
2015,08,14,06,50,14.10
2015,08,14,06,51,14.20
2015,08,14,06,52,14.20
2015,08,14,06,53,14.20
2015,08,14,06,54,14.20
2015,08,14,06,55,14.20
2015,08,14,06,56,14.20
2015,08,14,06,57,14.20
2015,08,14,06,58,14.20
2015,08,14,06,59,14.20
2015,08,14,07,00,14.20
2015,08,14,07,01,14.30
2015,08,14,07,02,14.30
2015,08,14,07,03,14.30
2015,08,14,07,04,14.40
2015,08,14,07,05,14.40
2015,08,14,07,06,14.40
2015,08,14,07,07,14.50
2015,08,14,07,08,14.50
2015,08,14,07,09,14.60
2015,08,14,07,10,14.60
2015,08,14,07,11,14.70
2015,08,14,07,12,14.70
2015,08,14,07,13,14.70
2015,08,14,07,14,14.70
2015,08,14,07,15,14.70
2015,08,14,07,16,14.80
2015,08,14,07,17,14.80
2015,08,14,07,18,14.80
2015,08,14,07,19,14.80
2015,08,14,07,20,14.80
2015,08,14,07,21,14.90
2015,08,14,07,22,14.90
2015,08,14,07,23,14.90
2015,08,14,07,24,15.00
2015,08,14,07,25,15.00
2015,08,14,07,26,15.00
2015,08,14,07,27,15.00
2015,08,14,07,28,15.00
2015,08,14,07,29,15.10
2015,08,14,07,30,15.10
2015,08,14,07,31,15.10
2015,08,14,07,32,15.20
2015,08,14,07,33,15.20
2015,08,14,07,34,15.30
2015,08,14,07,35,15.30
2015,08,14,07,36,15.30
2015,08,14,07,37,15.30
2015,08,14,07,38,15.40
2015,08,14,07,39,15.40
2015,08,14,07,40,15.50
2015,08,14,07,41,15.50
2015,08,14,07,42,15.50
2015,08,14,07,43,15.50
2015,08,14,07,44,15.50
2015,08,14,07,45,15.50
2015,08,14,07,46,15.50
2015,08,14,07,47,15.50
2015,08,14,07,48,15.50
2015,08,14,07,49,15.50
2015,08,14,07,50,15.60
2015,08,14,07,51,15.60
2015,08,14,07,52,15.60
2015,08,14,07,53,15.70
2015,08,14,07,54,15.70
2015,08,14,07,55,15.70
2015,08,14,07,56,15.70
2015,08,14,07,57,15.70
2015,08,14,07,58,15.80
2015,08,14,07,59,15.80
2015,08,14,08,00,15.80
2015,08,14,08,01,15.80
2015,08,14,08,02,15.80
2015,08,14,08,03,15.80
2015,08,14,08,04,15.80
2015,08,14,08,05,15.80
2015,08,14,08,06,15.80
2015,08,14,08,07,15.80
2015,08,14,08,08,15.80
2015,08,14,08,09,15.80
2015,08,14,08,10,15.90
2015,08,14,08,11,15.90
2015,08,14,08,12,15.90
2015,08,14,08,13,16.00
2015,08,14,08,14,16.10
2015,08,14,08,15,16.10
2015,08,14,08,16,16.10
2015,08,14,08,17,16.10
2015,08,14,08,18,16.20
2015,08,14,08,19,16.20
2015,08,14,08,20,16.20
2015,08,14,08,21,16.20
2015,08,14,08,22,16.20
2015,08,14,08,23,16.20
2015,08,14,08,24,16.30
2015,08,14,08,25,16.30
2015,08,14,08,26,16.30
2015,08,14,08,27,16.30
2015,08,14,08,28,16.30
2015,08,14,08,29,16.30
2015,08,14,08,30,16.30
2015,08,14,08,31,16.30
2015,08,14,08,32,16.30
2015,08,14,08,33,16.20
2015,08,14,08,34,16.20
2015,08,14,08,35,16.20
2015,08,14,08,36,16.20
2015,08,14,08,37,16.20
2015,08,14,08,38,16.20
2015,08,14,08,39,16.20
2015,08,14,08,40,16.20
2015,08,14,08,41,16.20
2015,08,14,08,42,16.20
2015,08,14,08,43,16.20
2015,08,14,08,44,16.20
2015,08,14,08,45,16.20
2015,08,14,08,46,16.20
2015,08,14,08,47,16.20
2015,08,14,08,48,16.20
2015,08,14,08,49,16.20
2015,08,14,08,50,16.20
2015,08,14,08,51,16.20
2015,08,14,08,52,16.20
2015,08,14,08,53,16.20
2015,08,14,08,54,16.30
2015,08,14,08,55,16.30
2015,08,14,08,56,16.30
2015,08,14,08,57,16.30
2015,08,14,08,58,16.30
2015,08,14,08,59,16.40
2015,08,14,09,00,16.40
2015,08,14,09,01,16.40
2015,08,14,09,02,16.40
2015,08,14,09,03,16.40
2015,08,14,09,04,16.40
2015,08,14,09,05,16.40
2015,08,14,09,06,16.40
2015,08,14,09,07,16.40
2015,08,14,09,08,16.40
2015,08,14,09,09,16.40
2015,08,14,09,10,16.40
2015,08,14,09,11,16.40
2015,08,14,09,12,16.40
2015,08,14,09,13,16.40
2015,08,14,09,14,16.40
2015,08,14,09,15,16.40
2015,08,14,09,16,16.40
2015,08,14,09,17,16.40
2015,08,14,09,18,16.40
2015,08,14,09,19,16.40
2015,08,14,09,20,16.40
2015,08,14,09,21,16.30
2015,08,14,09,22,16.30
2015,08,14,09,23,16.20
2015,08,14,09,24,16.10
2015,08,14,09,25,16.00
2015,08,14,09,26,15.80
2015,08,14,09,27,15.80
2015,08,14,09,28,15.70
2015,08,14,09,29,15.60
2015,08,14,09,30,15.60
2015,08,14,09,31,15.50
2015,08,14,09,32,15.50
2015,08,14,09,33,15.40
2015,08,14,09,34,15.40
2015,08,14,09,35,15.40
2015,08,14,09,36,15.40
2015,08,14,09,37,15.30
2015,08,14,09,38,15.30
2015,08,14,09,39,15.30
2015,08,14,09,40,15.30
2015,08,14,09,41,15.30
2015,08,14,09,42,15.20
2015,08,14,09,43,15.10
2015,08,14,09,44,15.10
2015,08,14,09,45,15.00
2015,08,14,09,46,15.00
2015,08,14,09,47,15.00
2015,08,14,09,48,14.90
2015,08,14,09,49,14.90
2015,08,14,09,50,14.90
2015,08,14,09,51,14.90
2015,08,14,09,52,14.90
2015,08,14,09,53,14.90
2015,08,14,09,54,14.90
2015,08,14,09,55,14.80
2015,08,14,09,56,14.80
2015,08,14,09,57,14.90
2015,08,14,09,58,14.90
2015,08,14,09,59,14.90
2015,08,14,10,00,14.90
2015,08,14,10,01,14.90
2015,08,14,10,02,14.90
2015,08,14,10,03,14.90
2015,08,14,10,04,14.90
2015,08,14,10,05,14.90
2015,08,14,10,06,14.90
2015,08,14,10,07,14.90
2015,08,14,10,08,15.00
2015,08,14,10,09,15.00
2015,08,14,10,10,15.00
2015,08,14,10,11,15.00
2015,08,14,10,12,15.10
2015,08,14,10,13,15.10
2015,08,14,10,14,15.20
2015,08,14,10,15,15.20
2015,08,14,10,16,15.30
2015,08,14,10,17,15.30
2015,08,14,10,18,15.40
2015,08,14,10,19,15.40
2015,08,14,10,20,15.40
2015,08,14,10,21,15.40
2015,08,14,10,22,15.40
2015,08,14,10,23,15.40
2015,08,14,10,24,15.50
2015,08,14,10,25,15.50
2015,08,14,10,26,15.50
2015,08,14,10,27,15.50
2015,08,14,10,28,15.50
2015,08,14,10,29,15.50
2015,08,14,10,30,15.50
2015,08,14,10,31,15.60
2015,08,14,10,32,15.60
2015,08,14,10,33,15.60
2015,08,14,10,34,15.60
2015,08,14,10,35,15.60
2015,08,14,10,36,15.70
2015,08,14,10,37,15.70
2015,08,14,10,38,15.70
2015,08,14,10,39,15.80
2015,08,14,10,40,15.80
2015,08,14,10,41,15.80
2015,08,14,10,42,15.80
2015,08,14,10,43,15.80
2015,08,14,10,44,15.90
2015,08,14,10,45,15.90
2015,08,14,10,46,16.00
2015,08,14,10,47,16.10
2015,08,14,10,48,16.10
2015,08,14,10,49,16.10
2015,08,14,10,50,16.10
2015,08,14,10,51,16.10
2015,08,14,10,52,16.10
2015,08,14,10,53,16.10
2015,08,14,10,54,16.00
2015,08,14,10,55,15.90
2015,08,14,10,56,15.80
2015,08,14,10,57,15.70
2015,08,14,10,58,15.60
2015,08,14,10,59,15.50
2015,08,14,11,00,15.50
2015,08,14,11,01,15.30
2015,08,14,11,02,15.30
2015,08,14,11,03,15.30
2015,08,14,11,04,15.20
2015,08,14,11,05,15.10
2015,08,14,11,06,15.10
2015,08,14,11,07,15.00
2015,08,14,11,08,15.00
2015,08,14,11,09,14.90
2015,08,14,11,10,14.90
2015,08,14,11,11,14.80
2015,08,14,11,12,14.80
2015,08,14,11,13,14.80
2015,08,14,11,14,14.80
2015,08,14,11,15,14.80
2015,08,14,11,16,14.80
2015,08,14,11,17,14.70
2015,08,14,11,18,14.70
2015,08,14,11,19,14.70
2015,08,14,11,20,14.70
2015,08,14,11,21,14.70
2015,08,14,11,22,14.60
2015,08,14,11,23,14.60
2015,08,14,11,24,14.60
2015,08,14,11,25,14.60
2015,08,14,11,26,14.60
2015,08,14,11,27,14.50
2015,08,14,11,28,14.50
2015,08,14,11,29,14.50
2015,08,14,11,30,14.50
2015,08,14,11,31,14.50
2015,08,14,11,32,14.50
2015,08,14,11,33,14.50
2015,08,14,11,34,14.50
2015,08,14,11,35,14.50
2015,08,14,11,36,14.50
2015,08,14,11,37,14.50
2015,08,14,11,38,14.50
2015,08,14,11,39,14.50
2015,08,14,11,40,14.50
2015,08,14,11,41,14.50
2015,08,14,11,42,14.50
2015,08,14,11,43,14.60
2015,08,14,11,44,14.60
2015,08,14,11,45,14.60
2015,08,14,11,46,14.60
2015,08,14,11,47,14.60
2015,08,14,11,48,14.60
2015,08,14,11,49,14.70
2015,08,14,11,50,14.70
2015,08,14,11,51,14.70
2015,08,14,11,52,14.70
2015,08,14,11,53,14.80
2015,08,14,11,54,14.90
2015,08,14,11,55,14.90
2015,08,14,11,56,14.90
2015,08,14,11,57,14.90
2015,08,14,11,58,14.90
2015,08,14,11,59,14.90
2015,08,14,12,00,14.90
2015,08,14,12,01,14.90
2015,08,14,12,02,14.90
2015,08,14,12,03,14.90
2015,08,14,12,04,14.80
2015,08,14,12,05,14.80
2015,08,14,12,06,14.80
2015,08,14,12,07,14.80
2015,08,14,12,08,14.80
2015,08,14,12,09,14.80
2015,08,14,12,10,14.80
2015,08,14,12,11,14.80
2015,08,14,12,12,14.80
2015,08,14,12,13,14.80
2015,08,14,12,14,14.80
2015,08,14,12,15,14.80
2015,08,14,12,16,14.80
2015,08,14,12,17,14.80
2015,08,14,12,18,14.80
2015,08,14,12,19,14.80
2015,08,14,12,20,14.80
2015,08,14,12,21,14.80
2015,08,14,12,22,14.80
2015,08,14,12,23,14.80
2015,08,14,12,24,14.80
2015,08,14,12,25,14.90
2015,08,14,12,26,14.90
2015,08,14,12,27,14.90
2015,08,14,12,28,14.90
2015,08,14,12,29,14.90
2015,08,14,12,30,14.90
2015,08,14,12,31,14.80
2015,08,14,12,32,14.80
2015,08,14,12,33,14.80
2015,08,14,12,34,14.80
2015,08,14,12,35,14.70
2015,08,14,12,36,14.70
2015,08,14,12,37,14.70
2015,08,14,12,38,14.70
2015,08,14,12,39,14.70
2015,08,14,12,40,14.70
2015,08,14,12,41,14.80
2015,08,14,12,42,14.80
2015,08,14,12,43,14.80
2015,08,14,12,44,14.80
2015,08,14,12,45,14.80
2015,08,14,12,46,14.90
2015,08,14,12,47,14.90
2015,08,14,12,48,14.90
2015,08,14,12,49,14.90
2015,08,14,12,50,15.00
2015,08,14,12,51,15.00
2015,08,14,12,52,15.00
2015,08,14,12,53,15.10
2015,08,14,12,54,15.10
2015,08,14,12,55,15.20
2015,08,14,12,56,15.20
2015,08,14,12,57,15.20
2015,08,14,12,58,15.30
2015,08,14,12,59,15.30
2015,08,14,13,00,15.40
2015,08,14,13,01,15.40
2015,08,14,13,02,15.40
2015,08,14,13,03,15.40
2015,08,14,13,04,15.40
2015,08,14,13,05,15.40
2015,08,14,13,06,15.40
2015,08,14,13,07,15.40
2015,08,14,13,08,15.40
2015,08,14,13,09,15.40
2015,08,14,13,10,15.40
2015,08,14,13,11,15.50
2015,08,14,13,12,15.50
2015,08,14,13,13,15.50
2015,08,14,13,14,15.50
2015,08,14,13,15,15.50
2015,08,14,13,16,15.50
2015,08,14,13,17,15.60
2015,08,14,13,18,15.60
2015,08,14,13,19,15.60
2015,08,14,13,20,15.60
2015,08,14,13,21,15.70
2015,08,14,13,22,15.70
2015,08,14,13,23,15.80
2015,08,14,13,24,15.80
2015,08,14,13,25,15.80
2015,08,14,13,26,15.80
2015,08,14,13,27,15.90
2015,08,14,13,28,16.00
2015,08,14,13,29,16.10
2015,08,14,13,30,16.10
2015,08,14,13,31,16.20
2015,08,14,13,32,16.30
2015,08,14,13,33,16.30
2015,08,14,13,34,16.40
2015,08,14,13,35,16.50
2015,08,14,13,36,16.60
2015,08,14,13,37,16.70
2015,08,14,13,38,16.70
2015,08,14,13,39,16.70
2015,08,14,13,40,16.70
2015,08,14,13,41,16.70
2015,08,14,13,42,16.80
2015,08,14,13,43,16.80
2015,08,14,13,44,16.90
2015,08,14,13,45,16.90
2015,08,14,13,46,17.00
2015,08,14,13,47,17.00
2015,08,14,13,48,17.00
2015,08,14,13,49,17.10
2015,08,14,13,50,17.20
2015,08,14,13,51,17.30
2015,08,14,13,52,17.30
2015,08,14,13,53,17.30
2015,08,14,13,54,17.30
2015,08,14,13,55,17.30
2015,08,14,13,56,17.40
2015,08,14,13,57,17.50
2015,08,14,13,58,17.70
2015,08,14,13,59,17.70
2015,08,14,14,00,17.80
2015,08,14,14,01,17.80
2015,08,14,14,02,17.90
2015,08,14,14,03,17.90
2015,08,14,14,04,18.00
2015,08,14,14,05,18.10
2015,08,14,14,06,18.10
2015,08,14,14,07,18.20
2015,08,14,14,08,18.30
2015,08,14,14,09,18.30
2015,08,14,14,10,18.40
2015,08,14,14,11,18.50
2015,08,14,14,12,18.50
2015,08,14,14,13,18.60
2015,08,14,14,14,18.70
2015,08,14,14,15,18.80
2015,08,14,14,16,18.90
2015,08,14,14,17,18.90
2015,08,14,14,18,18.90
2015,08,14,14,19,18.90
2015,08,14,14,20,19.00
2015,08,14,14,21,19.10
2015,08,14,14,22,19.10
2015,08,14,14,23,19.10
2015,08,14,14,24,19.10
2015,08,14,14,25,19.10
2015,08,14,14,26,19.20
2015,08,14,14,27,19.20
2015,08,14,14,28,19.30
2015,08,14,14,29,19.30
2015,08,14,14,30,19.40
2015,08,14,14,31,19.40
2015,08,14,14,32,19.50
2015,08,14,14,33,19.50
2015,08,14,14,34,19.50
2015,08,14,14,35,19.60
2015,08,14,14,36,19.60
2015,08,14,14,37,19.60
2015,08,14,14,38,19.70
2015,08,14,14,39,19.70
2015,08,14,14,40,19.70
2015,08,14,14,41,19.70
2015,08,14,14,42,19.70
2015,08,14,14,43,19.70
2015,08,14,14,44,19.70
2015,08,14,14,45,19.80
2015,08,14,14,46,19.80
2015,08,14,14,47,19.80
2015,08,14,14,48,19.80
2015,08,14,14,49,19.80
2015,08,14,14,50,19.90
2015,08,14,14,51,19.90
2015,08,14,14,52,19.90
2015,08,14,14,53,19.90
2015,08,14,14,54,19.90
2015,08,14,14,55,19.90
2015,08,14,14,56,19.90
2015,08,14,14,57,19.90
2015,08,14,14,58,19.90
2015,08,14,14,59,19.90
2015,08,14,15,00,19.90
2015,08,14,15,01,19.90
2015,08,14,15,02,19.80
2015,08,14,15,03,19.80
2015,08,14,15,04,19.70
2015,08,14,15,05,19.60
2015,08,14,15,06,19.50
2015,08,14,15,07,19.50
2015,08,14,15,08,19.40
2015,08,14,15,09,19.30
2015,08,14,15,10,19.30
2015,08,14,15,11,19.10
2015,08,14,15,12,19.10
2015,08,14,15,13,19.10
2015,08,14,15,14,18.90
2015,08,14,15,15,18.90
2015,08,14,15,16,18.90
2015,08,14,15,17,18.90
2015,08,14,15,18,18.90
2015,08,14,15,19,18.90
2015,08,14,15,20,18.90
2015,08,14,15,21,18.90
2015,08,14,15,22,18.90
2015,08,14,15,23,18.90
2015,08,14,15,24,18.90
2015,08,14,15,25,18.90
2015,08,14,15,26,18.90
2015,08,14,15,27,19.10
2015,08,14,15,28,19.10
2015,08,14,15,29,19.10
2015,08,14,15,30,19.10
2015,08,14,15,31,19.10
2015,08,14,15,32,19.10
2015,08,14,15,33,19.20
2015,08,14,15,34,19.20
2015,08,14,15,35,19.20
2015,08,14,15,36,19.30
2015,08,14,15,37,19.30
2015,08,14,15,38,19.40
2015,08,14,15,39,19.60
2015,08,14,15,40,19.70
2015,08,14,15,41,19.80
2015,08,14,15,42,19.90
2015,08,14,15,43,20.10
2015,08,14,15,44,20.20
2015,08,14,15,45,20.20
2015,08,14,15,46,20.20
2015,08,14,15,47,20.30
2015,08,14,15,48,20.30
2015,08,14,15,49,20.30
2015,08,14,15,50,20.30
2015,08,14,15,51,20.30
2015,08,14,15,52,20.30
2015,08,14,15,53,20.30
2015,08,14,15,54,20.30
2015,08,14,15,55,20.30
2015,08,14,15,56,20.20
2015,08,14,15,57,20.20
2015,08,14,15,58,20.20
2015,08,14,15,59,20.20
2015,08,14,16,00,20.20
2015,08,14,16,01,20.20
2015,08,14,16,02,20.20
2015,08,14,16,03,20.20
2015,08,14,16,04,20.20
2015,08,14,16,05,20.20
2015,08,14,16,06,20.20
2015,08,14,16,07,20.20
2015,08,14,16,08,20.20
2015,08,14,16,09,20.20
2015,08,14,16,10,20.20
2015,08,14,16,11,20.20
2015,08,14,16,12,20.20
2015,08,14,16,13,20.20
2015,08,14,16,14,20.20
2015,08,14,16,15,20.20
2015,08,14,16,16,20.20
2015,08,14,16,17,20.30
2015,08,14,16,18,20.30
2015,08,14,16,19,20.40
2015,08,14,16,20,20.40
2015,08,14,16,21,20.40
2015,08,14,16,22,20.40
2015,08,14,16,23,20.40
2015,08,14,16,24,20.50
2015,08,14,16,25,20.50
2015,08,14,16,26,20.50
2015,08,14,16,27,20.50
2015,08,14,16,28,20.50
2015,08,14,16,29,20.50
2015,08,14,16,30,20.40
2015,08,14,16,31,20.40
2015,08,14,16,32,20.40
2015,08,14,16,33,20.40
2015,08,14,16,34,20.40
2015,08,14,16,35,20.50
2015,08,14,16,36,20.50
2015,08,14,16,37,20.60
2015,08,14,16,38,20.60
2015,08,14,16,39,20.60
2015,08,14,16,40,20.60
2015,08,14,16,41,20.70
2015,08,14,16,42,20.70
2015,08,14,16,43,20.70
2015,08,14,16,44,20.80
2015,08,14,16,45,20.80
2015,08,14,16,46,20.80
2015,08,14,16,47,20.80
2015,08,14,16,48,20.80
2015,08,14,16,49,20.80
2015,08,14,16,50,20.80
2015,08,14,16,51,20.80
2015,08,14,16,52,20.70
2015,08,14,16,53,20.70
2015,08,14,16,54,20.70
2015,08,14,16,55,20.70
2015,08,14,16,56,20.70
2015,08,14,16,57,20.70
2015,08,14,16,58,20.70
2015,08,14,16,59,20.70
2015,08,14,17,00,20.70
2015,08,14,17,01,20.70
2015,08,14,17,02,20.70
2015,08,14,17,03,20.70
2015,08,14,17,04,20.70
2015,08,14,17,05,20.60
2015,08,14,17,06,20.60
2015,08,14,17,07,20.60
2015,08,14,17,08,20.50
2015,08,14,17,09,20.50
2015,08,14,17,10,20.50
2015,08,14,17,11,20.50
2015,08,14,17,12,20.50
2015,08,14,17,13,20.50
2015,08,14,17,14,20.40
2015,08,14,17,15,20.40
2015,08,14,17,16,20.40
2015,08,14,17,17,20.40
2015,08,14,17,18,20.40
2015,08,14,17,19,20.40